Location: Siratepeler Tepesi
(39.1042°N, 32.0781°E)
Time: 11:07:12
(UTC+00:00)

Okean O Rocket - Pass Details

Date: 11 April 2026
Orbit: 613 x 635 km, 98.0° (Epoch: 14 May)

Event Time Altitude Azimuth Distance (km) Brightness Sun altitude
Exits shadow 19:06:50 48° 304° (WNW) 827 2.5 -28.8°
Drops below altitude 10° 19:10:18 10° 339° (NNW) 2,006 4.9 -29.3°
Sets 19:12:31 0° 343° (NNW) 2,913 5.9 -29.6°
